Year,Month,Day,Hour,Minute,Value (Times are PST for temperature in C)
2012,03,15,00,00,6.40
2012,03,15,00,01,6.40
2012,03,15,00,02,6.40
2012,03,15,00,03,6.40
2012,03,15,00,04,6.40
2012,03,15,00,05,6.40
2012,03,15,00,06,6.40
2012,03,15,00,07,6.40
2012,03,15,00,08,6.40
2012,03,15,00,09,6.40
2012,03,15,00,10,6.40
2012,03,15,00,11,6.40
2012,03,15,00,12,6.40
2012,03,15,00,13,6.40
2012,03,15,00,14,6.40
2012,03,15,00,15,6.40
2012,03,15,00,16,6.40
2012,03,15,00,17,6.40
2012,03,15,00,18,6.40
2012,03,15,00,19,6.40
2012,03,15,00,20,6.40
2012,03,15,00,21,6.40
2012,03,15,00,22,6.50
2012,03,15,00,23,6.60
2012,03,15,00,24,6.60
2012,03,15,00,25,6.60
2012,03,15,00,26,6.60
2012,03,15,00,27,6.60
2012,03,15,00,28,6.60
2012,03,15,00,29,6.60
2012,03,15,00,30,6.60
2012,03,15,00,31,6.60
2012,03,15,00,32,6.60
2012,03,15,00,33,6.60
2012,03,15,00,34,6.60
2012,03,15,00,35,6.60
2012,03,15,00,36,6.60
2012,03,15,00,37,6.60
2012,03,15,00,38,6.60
2012,03,15,00,39,6.60
2012,03,15,00,40,6.60
2012,03,15,00,41,6.60
2012,03,15,00,42,6.60
2012,03,15,00,43,6.60
2012,03,15,00,44,6.60
2012,03,15,00,45,6.60
2012,03,15,00,46,6.60
2012,03,15,00,47,6.60
2012,03,15,00,48,6.60
2012,03,15,00,49,6.60
2012,03,15,00,50,6.60
2012,03,15,00,51,6.60
2012,03,15,00,52,6.60
2012,03,15,00,53,6.60
2012,03,15,00,54,6.60
2012,03,15,00,55,6.60
2012,03,15,00,56,6.60
2012,03,15,00,57,6.60
2012,03,15,00,58,6.60
2012,03,15,00,59,6.60
2012,03,15,01,00,6.60
2012,03,15,01,01,6.60
2012,03,15,01,02,6.60
2012,03,15,01,03,6.60
2012,03,15,01,04,6.60
2012,03,15,01,05,6.60
2012,03,15,01,06,6.60
2012,03,15,01,07,6.60
2012,03,15,01,08,6.60
2012,03,15,01,09,6.60
2012,03,15,01,10,6.60
2012,03,15,01,11,6.60
2012,03,15,01,12,6.60
2012,03,15,01,13,6.60
2012,03,15,01,14,6.60
2012,03,15,01,15,6.60
2012,03,15,01,16,6.60
2012,03,15,01,17,6.60
2012,03,15,01,18,6.70
2012,03,15,01,19,6.70
2012,03,15,01,20,6.70
2012,03,15,01,21,6.70
2012,03,15,01,22,6.70
2012,03,15,01,23,6.70
2012,03,15,01,24,6.70
2012,03,15,01,25,6.70
2012,03,15,01,26,6.70
2012,03,15,01,27,6.70
2012,03,15,01,28,6.70
2012,03,15,01,29,6.70
2012,03,15,01,30,6.70
2012,03,15,01,31,6.70
2012,03,15,01,32,6.70
2012,03,15,01,33,6.80
2012,03,15,01,34,6.80
2012,03,15,01,35,6.80
2012,03,15,01,36,6.80
2012,03,15,01,37,6.80
2012,03,15,01,38,6.80
2012,03,15,01,39,6.80
2012,03,15,01,40,6.80
2012,03,15,01,41,6.80
2012,03,15,01,42,6.80
2012,03,15,01,43,6.80
2012,03,15,01,44,6.80
2012,03,15,01,45,6.80
2012,03,15,01,46,6.80
2012,03,15,01,47,6.80
2012,03,15,01,48,6.80
2012,03,15,01,49,6.80
2012,03,15,01,50,6.80
2012,03,15,01,51,6.80
2012,03,15,01,52,6.80
2012,03,15,01,53,6.80
2012,03,15,01,54,6.80
2012,03,15,01,55,6.80
2012,03,15,01,56,6.80
2012,03,15,01,57,6.80
2012,03,15,01,58,6.80
2012,03,15,01,59,6.80
2012,03,15,02,00,6.80
2012,03,15,02,01,6.80
2012,03,15,02,02,6.90
2012,03,15,02,03,6.90
2012,03,15,02,04,6.90
2012,03,15,02,05,7.00
2012,03,15,02,06,7.00
2012,03,15,02,07,7.00
2012,03,15,02,08,7.00
2012,03,15,02,09,7.00
2012,03,15,02,10,7.00
2012,03,15,02,11,7.10
2012,03,15,02,12,7.10
2012,03,15,02,13,7.10
2012,03,15,02,14,7.20
2012,03,15,02,15,7.20
2012,03,15,02,16,7.20
2012,03,15,02,17,7.20
2012,03,15,02,18,7.30
2012,03,15,02,19,7.30
2012,03,15,02,20,7.30
2012,03,15,02,21,7.30
2012,03,15,02,22,7.30
2012,03,15,02,23,7.30
2012,03,15,02,24,7.30
2012,03,15,02,25,7.30
2012,03,15,02,26,7.30
2012,03,15,02,27,7.30
2012,03,15,02,28,7.30
2012,03,15,02,29,7.30
2012,03,15,02,30,7.30
2012,03,15,02,31,7.30
2012,03,15,02,32,7.30
2012,03,15,02,33,7.30
2012,03,15,02,34,7.30
2012,03,15,02,35,7.40
2012,03,15,02,36,7.40
2012,03,15,02,37,7.40
2012,03,15,02,38,7.40
2012,03,15,02,39,7.40
2012,03,15,02,40,7.40
2012,03,15,02,41,7.40
2012,03,15,02,42,7.40
2012,03,15,02,43,7.50
2012,03,15,02,44,7.50
2012,03,15,02,45,7.50
2012,03,15,02,46,7.50
2012,03,15,02,47,7.50
2012,03,15,02,48,7.60
2012,03,15,02,49,7.60
2012,03,15,02,50,7.60
2012,03,15,02,51,7.60
2012,03,15,02,52,7.60
2012,03,15,02,53,7.60
2012,03,15,02,54,7.60
2012,03,15,02,55,7.60
2012,03,15,02,56,7.60
2012,03,15,02,57,7.60
2012,03,15,02,58,7.60
2012,03,15,02,59,7.60
2012,03,15,03,00,7.60
2012,03,15,03,01,7.60
2012,03,15,03,02,7.60
2012,03,15,03,03,7.60
2012,03,15,03,04,7.60
2012,03,15,03,05,7.60
2012,03,15,03,06,7.70
2012,03,15,03,07,7.70
2012,03,15,03,08,7.70
2012,03,15,03,09,7.70
2012,03,15,03,10,7.70
2012,03,15,03,11,7.70
2012,03,15,03,12,7.70
2012,03,15,03,13,7.70
2012,03,15,03,14,7.70
2012,03,15,03,15,7.70
2012,03,15,03,16,7.70
2012,03,15,03,17,7.70
2012,03,15,03,18,7.70
2012,03,15,03,19,7.70
2012,03,15,03,20,7.70
2012,03,15,03,21,7.70
2012,03,15,03,22,7.70
2012,03,15,03,23,7.70
2012,03,15,03,24,7.70
2012,03,15,03,25,7.80
2012,03,15,03,26,7.80
2012,03,15,03,27,7.80
2012,03,15,03,28,7.80
2012,03,15,03,29,7.80
2012,03,15,03,30,7.80
2012,03,15,03,31,7.80
2012,03,15,03,32,7.80
2012,03,15,03,33,7.80
2012,03,15,03,34,7.80
2012,03,15,03,35,7.70
2012,03,15,03,36,7.70
2012,03,15,03,37,7.70
2012,03,15,03,38,7.70
2012,03,15,03,39,7.70
2012,03,15,03,40,7.70
2012,03,15,03,41,7.70
2012,03,15,03,42,7.70
2012,03,15,03,43,7.70
2012,03,15,03,44,7.70
2012,03,15,03,45,7.70
2012,03,15,03,46,7.70
2012,03,15,03,47,7.70
2012,03,15,03,48,7.70
2012,03,15,03,49,7.70
2012,03,15,03,50,7.70
2012,03,15,03,51,7.70
2012,03,15,03,52,7.70
2012,03,15,03,53,7.70
2012,03,15,03,54,7.70
2012,03,15,03,55,7.70
2012,03,15,03,56,7.70
2012,03,15,03,57,7.70
2012,03,15,03,58,7.60
2012,03,15,03,59,7.60
2012,03,15,04,00,7.60
2012,03,15,04,01,7.60
2012,03,15,04,02,7.60
2012,03,15,04,03,7.60
2012,03,15,04,04,7.60
2012,03,15,04,05,7.60
2012,03,15,04,06,7.60
2012,03,15,04,07,7.60
2012,03,15,04,08,7.60
2012,03,15,04,09,7.60
2012,03,15,04,10,7.60
2012,03,15,04,11,7.60
2012,03,15,04,12,7.60
2012,03,15,04,13,7.60
2012,03,15,04,14,7.60
2012,03,15,04,15,7.60
2012,03,15,04,16,7.60
2012,03,15,04,17,7.60
2012,03,15,04,18,7.60
2012,03,15,04,19,7.50
2012,03,15,04,20,7.50
2012,03,15,04,21,7.50
2012,03,15,04,22,7.50
2012,03,15,04,23,7.50
2012,03,15,04,24,7.50
2012,03,15,04,25,7.50
2012,03,15,04,26,7.50
2012,03,15,04,27,7.50
2012,03,15,04,28,7.50
2012,03,15,04,29,7.50
2012,03,15,04,30,7.50
2012,03,15,04,31,7.60
2012,03,15,04,32,7.60
2012,03,15,04,33,7.60
2012,03,15,04,34,7.60
2012,03,15,04,35,7.60
2012,03,15,04,36,7.60
2012,03,15,04,37,7.60
2012,03,15,04,38,7.60
2012,03,15,04,39,7.60
2012,03,15,04,40,7.60
2012,03,15,04,41,7.60
2012,03,15,04,42,7.60
2012,03,15,04,43,7.60
2012,03,15,04,44,7.60
2012,03,15,04,45,7.60
2012,03,15,04,46,7.70
2012,03,15,04,47,7.70
2012,03,15,04,48,7.70
2012,03,15,04,49,7.70
2012,03,15,04,50,7.70
2012,03,15,04,51,7.70
2012,03,15,04,52,7.70
2012,03,15,04,53,7.70
2012,03,15,04,54,7.70
2012,03,15,04,55,7.70
2012,03,15,04,56,7.70
2012,03,15,04,57,7.70
2012,03,15,04,58,7.70
2012,03,15,04,59,7.70
2012,03,15,05,00,7.70
2012,03,15,05,01,7.70
2012,03,15,05,02,7.70
2012,03,15,05,03,7.70
2012,03,15,05,04,7.70
2012,03,15,05,05,7.70
2012,03,15,05,06,7.70
2012,03,15,05,07,7.70
2012,03,15,05,08,7.70
2012,03,15,05,09,7.70
2012,03,15,05,10,7.70
2012,03,15,05,11,7.70
2012,03,15,05,12,7.70
2012,03,15,05,13,7.70
2012,03,15,05,14,7.70
2012,03,15,05,15,7.70
2012,03,15,05,16,7.70
2012,03,15,05,17,7.70
2012,03,15,05,18,7.70
2012,03,15,05,19,7.70
2012,03,15,05,20,7.70
2012,03,15,05,21,7.70
2012,03,15,05,22,7.70
2012,03,15,05,23,7.70
2012,03,15,05,24,7.70
2012,03,15,05,25,7.70
2012,03,15,05,26,7.70
2012,03,15,05,27,7.70
2012,03,15,05,28,7.70
2012,03,15,05,29,7.70
2012,03,15,05,30,7.70
2012,03,15,05,31,7.70
2012,03,15,05,32,7.80
2012,03,15,05,33,7.80
2012,03,15,05,34,7.80
2012,03,15,05,35,7.80
2012,03,15,05,36,7.80
2012,03,15,05,37,7.80
2012,03,15,05,38,7.80
2012,03,15,05,39,7.80
2012,03,15,05,40,7.80
2012,03,15,05,41,7.80
2012,03,15,05,42,7.80
2012,03,15,05,43,7.80
2012,03,15,05,44,7.80
2012,03,15,05,45,7.80
2012,03,15,05,46,7.80
2012,03,15,05,47,7.80
2012,03,15,05,48,7.80
2012,03,15,05,49,7.90
2012,03,15,05,50,7.90
2012,03,15,05,51,7.90
2012,03,15,05,52,7.90
2012,03,15,05,53,7.90
2012,03,15,05,54,7.90
2012,03,15,05,55,7.90
2012,03,15,05,56,7.90
2012,03,15,05,57,7.90
2012,03,15,05,58,7.90
2012,03,15,05,59,8.00
2012,03,15,06,00,8.00
2012,03,15,06,01,8.00
2012,03,15,06,02,8.00
2012,03,15,06,03,8.00
2012,03,15,06,04,8.00
2012,03,15,06,05,8.00
2012,03,15,06,06,8.00
2012,03,15,06,07,8.00
2012,03,15,06,08,8.00
2012,03,15,06,09,8.00
2012,03,15,06,10,8.00
2012,03,15,06,11,8.10
2012,03,15,06,12,8.10
2012,03,15,06,13,8.10
2012,03,15,06,14,8.10
2012,03,15,06,15,8.10
2012,03,15,06,16,8.10
2012,03,15,06,17,8.10
2012,03,15,06,18,8.20
2012,03,15,06,19,8.20
2012,03,15,06,20,8.20
2012,03,15,06,21,8.20
2012,03,15,06,22,8.20
2012,03,15,06,23,8.20
2012,03,15,06,24,8.20
2012,03,15,06,25,8.20
2012,03,15,06,26,8.20
2012,03,15,06,27,8.20
2012,03,15,06,28,8.20
2012,03,15,06,29,8.20
2012,03,15,06,30,8.20
2012,03,15,06,31,8.20
2012,03,15,06,32,8.20
2012,03,15,06,33,8.20
2012,03,15,06,34,8.20
2012,03,15,06,35,8.20
2012,03,15,06,36,8.20
2012,03,15,06,37,8.20
2012,03,15,06,38,8.20
2012,03,15,06,39,8.20
2012,03,15,06,40,8.20
2012,03,15,06,41,8.20
2012,03,15,06,42,8.20
2012,03,15,06,43,8.20
2012,03,15,06,44,8.30
2012,03,15,06,45,8.30
2012,03,15,06,46,8.30
2012,03,15,06,47,8.30
2012,03,15,06,48,8.30
2012,03,15,06,49,8.30
2012,03,15,06,50,8.30
2012,03,15,06,51,8.30
2012,03,15,06,52,8.30
2012,03,15,06,53,8.40
2012,03,15,06,54,8.40
2012,03,15,06,55,8.40
2012,03,15,06,56,8.40
2012,03,15,06,57,8.40
2012,03,15,06,58,8.40
2012,03,15,06,59,8.40
2012,03,15,07,00,8.40
2012,03,15,07,01,8.40
2012,03,15,07,02,8.40
2012,03,15,07,03,8.40
2012,03,15,07,04,8.40
2012,03,15,07,05,8.40
2012,03,15,07,06,8.40
2012,03,15,07,07,8.40
2012,03,15,07,08,8.40
2012,03,15,07,09,8.40
2012,03,15,07,10,8.40
2012,03,15,07,11,8.40
2012,03,15,07,12,8.40
2012,03,15,07,13,8.40
2012,03,15,07,14,8.40
2012,03,15,07,15,8.40
2012,03,15,07,16,8.40
2012,03,15,07,17,8.40
2012,03,15,07,18,8.40
2012,03,15,07,19,8.40
2012,03,15,07,20,8.40
2012,03,15,07,21,8.40
2012,03,15,07,22,8.40
2012,03,15,07,23,8.40
2012,03,15,07,24,8.40
2012,03,15,07,25,8.40
2012,03,15,07,26,8.40
2012,03,15,07,27,8.40
2012,03,15,07,28,8.40
2012,03,15,07,29,8.40
2012,03,15,07,30,8.40
2012,03,15,07,31,8.40
2012,03,15,07,32,8.40
2012,03,15,07,33,8.40
2012,03,15,07,34,8.40
2012,03,15,07,35,8.40
2012,03,15,07,36,8.40
2012,03,15,07,37,8.40
2012,03,15,07,38,8.40
2012,03,15,07,39,8.40
2012,03,15,07,40,8.40
2012,03,15,07,41,8.40
2012,03,15,07,42,8.40
2012,03,15,07,43,8.40
2012,03,15,07,44,8.40
2012,03,15,07,45,8.40
2012,03,15,07,46,8.40
2012,03,15,07,47,8.40
2012,03,15,07,48,8.40
2012,03,15,07,49,8.40
2012,03,15,07,50,8.40
2012,03,15,07,51,8.40
2012,03,15,07,52,8.40
2012,03,15,07,53,8.40
2012,03,15,07,54,8.40
2012,03,15,07,55,8.40
2012,03,15,07,56,8.40
2012,03,15,07,57,8.40
2012,03,15,07,58,8.40
2012,03,15,07,59,8.40
2012,03,15,08,00,8.40
2012,03,15,08,01,8.40
2012,03,15,08,02,8.40
2012,03,15,08,03,8.40
2012,03,15,08,04,8.40
2012,03,15,08,05,8.40
2012,03,15,08,06,8.40
2012,03,15,08,07,8.40
2012,03,15,08,08,8.40
2012,03,15,08,09,8.40
2012,03,15,08,10,8.40
2012,03,15,08,11,8.40
2012,03,15,08,12,8.40
2012,03,15,08,13,8.40
2012,03,15,08,14,8.40
2012,03,15,08,15,8.40
2012,03,15,08,16,8.40
2012,03,15,08,17,8.40
2012,03,15,08,18,8.50
2012,03,15,08,19,8.50
2012,03,15,08,20,8.50
2012,03,15,08,21,8.50
2012,03,15,08,22,8.50
2012,03,15,08,23,8.50
2012,03,15,08,24,8.50
2012,03,15,08,25,8.50
2012,03,15,08,26,8.50
2012,03,15,08,27,8.50
2012,03,15,08,28,8.50
2012,03,15,08,29,8.50
2012,03,15,08,30,8.50
2012,03,15,08,31,8.40
2012,03,15,08,32,8.40
2012,03,15,08,33,8.40
2012,03,15,08,34,8.30
2012,03,15,08,35,8.30
2012,03,15,08,36,8.20
2012,03,15,08,37,8.20
2012,03,15,08,38,8.20
2012,03,15,08,39,8.20
2012,03,15,08,40,8.20
2012,03,15,08,41,8.20
2012,03,15,08,42,8.20
2012,03,15,08,43,8.20
2012,03,15,08,44,8.20
2012,03,15,08,45,8.20
2012,03,15,08,46,8.20
2012,03,15,08,47,8.20
2012,03,15,08,48,8.20
2012,03,15,08,49,8.20
2012,03,15,08,50,8.20
2012,03,15,08,51,8.20
2012,03,15,08,52,8.20
2012,03,15,08,53,8.20
2012,03,15,08,54,8.20
2012,03,15,08,55,8.20
2012,03,15,08,56,8.20
2012,03,15,08,57,8.10
2012,03,15,08,58,8.10
2012,03,15,08,59,8.10
2012,03,15,09,00,8.10
2012,03,15,09,01,8.10
2012,03,15,09,02,8.10
2012,03,15,09,03,8.10
2012,03,15,09,04,8.10
2012,03,15,09,05,8.10
2012,03,15,09,06,8.10
2012,03,15,09,07,8.10
2012,03,15,09,08,8.10
2012,03,15,09,09,8.10
2012,03,15,09,10,8.10
2012,03,15,09,11,8.10
2012,03,15,09,12,8.10
2012,03,15,09,13,8.10
2012,03,15,09,14,8.10
2012,03,15,09,15,8.10
2012,03,15,09,16,8.10
2012,03,15,09,17,8.10
2012,03,15,09,18,8.10
2012,03,15,09,19,8.20
2012,03,15,09,20,8.20
2012,03,15,09,21,8.20
2012,03,15,09,22,8.20
2012,03,15,09,23,8.20
2012,03,15,09,24,8.20
2012,03,15,09,25,8.20
2012,03,15,09,26,8.20
2012,03,15,09,27,8.20
2012,03,15,09,28,8.20
2012,03,15,09,29,8.20
2012,03,15,09,30,8.20
2012,03,15,09,31,8.20
2012,03,15,09,32,8.20
2012,03,15,09,33,8.20
2012,03,15,09,34,8.20
2012,03,15,09,35,8.20
2012,03,15,09,36,8.30
2012,03,15,09,37,8.30
2012,03,15,09,38,8.30
2012,03,15,09,39,8.30
2012,03,15,09,40,8.30
2012,03,15,09,41,8.30
2012,03,15,09,42,8.30
2012,03,15,09,43,8.30
2012,03,15,09,44,8.40
2012,03,15,09,45,8.40
2012,03,15,09,46,8.40
2012,03,15,09,47,8.40
2012,03,15,09,48,8.50
2012,03,15,09,49,8.50
2012,03,15,09,50,8.50
2012,03,15,09,51,8.50
2012,03,15,09,52,8.50
2012,03,15,09,53,8.60
2012,03,15,09,54,8.60
2012,03,15,09,55,8.60
2012,03,15,09,56,8.60
2012,03,15,09,57,8.70
2012,03,15,09,58,8.80
2012,03,15,09,59,8.90
2012,03,15,10,00,9.00
2012,03,15,10,01,9.00
2012,03,15,10,02,9.10
2012,03,15,10,03,9.20
2012,03,15,10,04,9.40
2012,03,15,10,05,9.50
2012,03,15,10,06,9.50
2012,03,15,10,07,9.60
2012,03,15,10,08,9.60
2012,03,15,10,09,9.70
2012,03,15,10,10,9.70
2012,03,15,10,11,9.60
2012,03,15,10,12,9.60
2012,03,15,10,13,9.50
2012,03,15,10,14,9.40
2012,03,15,10,15,9.40
2012,03,15,10,16,9.30
2012,03,15,10,17,9.20
2012,03,15,10,18,9.20
2012,03,15,10,19,9.20
2012,03,15,10,20,9.20
2012,03,15,10,21,9.10
2012,03,15,10,22,9.00
2012,03,15,10,23,9.00
2012,03,15,10,24,8.90
2012,03,15,10,25,8.90
2012,03,15,10,26,8.80
2012,03,15,10,27,8.70
2012,03,15,10,28,8.70
2012,03,15,10,29,8.70
2012,03,15,10,30,8.70
2012,03,15,10,31,8.70
2012,03,15,10,32,8.70
2012,03,15,10,33,8.70
2012,03,15,10,34,8.70
2012,03,15,10,35,8.70
2012,03,15,10,36,8.70
2012,03,15,10,37,8.60
2012,03,15,10,38,8.60
2012,03,15,10,39,8.60
2012,03,15,10,40,8.60
2012,03,15,10,41,8.60
2012,03,15,10,42,8.70
2012,03,15,10,43,8.70
2012,03,15,10,44,8.70
2012,03,15,10,45,8.70
2012,03,15,10,46,8.70
2012,03,15,10,47,8.70
2012,03,15,10,48,8.70
2012,03,15,10,49,8.70
2012,03,15,10,50,8.70
2012,03,15,10,51,8.70
2012,03,15,10,52,8.70
2012,03,15,10,53,8.70
2012,03,15,10,54,8.70
2012,03,15,10,55,8.80
2012,03,15,10,56,8.80
2012,03,15,10,57,8.80
2012,03,15,10,58,8.80
2012,03,15,10,59,8.90
2012,03,15,11,00,8.90
2012,03,15,11,01,8.90
2012,03,15,11,02,8.90
2012,03,15,11,03,8.90
2012,03,15,11,04,8.90
2012,03,15,11,05,8.90
2012,03,15,11,06,8.90
2012,03,15,11,07,9.00
2012,03,15,11,08,8.90
2012,03,15,11,09,8.90
2012,03,15,11,10,8.90
2012,03,15,11,11,8.90
2012,03,15,11,12,9.00
2012,03,15,11,13,9.00
2012,03,15,11,14,9.00
2012,03,15,11,15,9.00
2012,03,15,11,16,9.00
2012,03,15,11,17,8.90
2012,03,15,11,18,8.90
2012,03,15,11,19,8.80
2012,03,15,11,20,8.80
2012,03,15,11,21,8.70
2012,03,15,11,22,8.80
2012,03,15,11,23,8.80
2012,03,15,11,24,8.80
2012,03,15,11,25,8.80
2012,03,15,11,26,8.80
2012,03,15,11,27,8.80
2012,03,15,11,28,8.90
2012,03,15,11,29,8.90
2012,03,15,11,30,8.80
2012,03,15,11,31,8.80
2012,03,15,11,32,8.80
2012,03,15,11,33,8.90
2012,03,15,11,34,8.90
2012,03,15,11,35,8.90
2012,03,15,11,36,8.90
2012,03,15,11,37,8.90
2012,03,15,11,38,8.90
2012,03,15,11,39,8.90
2012,03,15,11,40,9.00
2012,03,15,11,41,9.00
2012,03,15,11,42,9.00
2012,03,15,11,43,9.00
2012,03,15,11,44,9.10
2012,03,15,11,45,9.10
2012,03,15,11,46,9.00
2012,03,15,11,47,9.00
2012,03,15,11,48,9.10
2012,03,15,11,49,9.10
2012,03,15,11,50,9.20
2012,03,15,11,51,9.20
2012,03,15,11,52,9.30
2012,03,15,11,53,9.50
2012,03,15,11,54,9.50
2012,03,15,11,55,9.60
2012,03,15,11,56,9.60
2012,03,15,11,57,9.70
2012,03,15,11,58,9.60
2012,03,15,11,59,9.50
2012,03,15,12,00,9.40
2012,03,15,12,01,9.40
2012,03,15,12,02,9.40
2012,03,15,12,03,9.50
2012,03,15,12,04,9.50
2012,03,15,12,05,9.60
2012,03,15,12,06,9.70
2012,03,15,12,07,9.80
2012,03,15,12,08,9.70
2012,03,15,12,09,9.70
2012,03,15,12,10,9.70
2012,03,15,12,11,9.70
2012,03,15,12,12,9.60
2012,03,15,12,13,9.70
2012,03,15,12,14,9.70
2012,03,15,12,15,9.70
2012,03,15,12,16,9.70
2012,03,15,12,17,9.70
2012,03,15,12,18,9.70
2012,03,15,12,19,9.70
2012,03,15,12,20,9.70
2012,03,15,12,21,9.80
2012,03,15,12,22,9.90
2012,03,15,12,23,10.10
2012,03,15,12,24,10.20
2012,03,15,12,25,10.20
2012,03,15,12,26,10.10
2012,03,15,12,27,10.10
2012,03,15,12,28,10.10
2012,03,15,12,29,10.10
2012,03,15,12,30,10.10
2012,03,15,12,31,10.10
2012,03,15,12,32,10.10
2012,03,15,12,33,10.10
2012,03,15,12,34,10.10
2012,03,15,12,35,10.10
2012,03,15,12,36,10.10
2012,03,15,12,37,10.10
2012,03,15,12,38,10.10
2012,03,15,12,39,10.10
2012,03,15,12,40,10.20
2012,03,15,12,41,10.30
2012,03,15,12,42,10.40
2012,03,15,12,43,10.40
2012,03,15,12,44,10.50
2012,03,15,12,45,10.60
2012,03,15,12,46,10.60
2012,03,15,12,47,10.60
2012,03,15,12,48,10.70
2012,03,15,12,49,10.70
2012,03,15,12,50,10.80
2012,03,15,12,51,10.80
2012,03,15,12,52,10.70
2012,03,15,12,53,10.70
2012,03,15,12,54,10.80
2012,03,15,12,55,10.70
2012,03,15,12,56,10.80
2012,03,15,12,57,10.80
2012,03,15,12,58,10.90
2012,03,15,12,59,10.90
2012,03,15,13,00,10.90
2012,03,15,13,01,10.90
2012,03,15,13,02,10.90
2012,03,15,13,03,11.00
2012,03,15,13,04,11.00
2012,03,15,13,05,11.00
2012,03,15,13,06,11.10
2012,03,15,13,07,11.00
2012,03,15,13,08,10.90
2012,03,15,13,09,10.90
2012,03,15,13,10,10.90
2012,03,15,13,11,10.90
2012,03,15,13,12,10.90
2012,03,15,13,13,10.90
2012,03,15,13,14,11.00
2012,03,15,13,15,11.00
2012,03,15,13,16,10.90
2012,03,15,13,17,10.90
2012,03,15,13,18,10.90
2012,03,15,13,19,10.80
2012,03,15,13,20,10.70
2012,03,15,13,21,10.70
2012,03,15,13,22,10.70
2012,03,15,13,23,10.70
2012,03,15,13,24,10.70
2012,03,15,13,25,10.60
2012,03,15,13,26,10.50
2012,03,15,13,27,10.40
2012,03,15,13,28,10.40
2012,03,15,13,29,10.40
2012,03,15,13,30,10.40
2012,03,15,13,31,10.40
2012,03,15,13,32,10.30
2012,03,15,13,33,10.30
2012,03,15,13,34,10.20
2012,03,15,13,35,10.20
2012,03,15,13,36,10.20
2012,03,15,13,37,10.20
2012,03,15,13,38,10.10
2012,03,15,13,39,10.10
2012,03,15,13,40,10.10
2012,03,15,13,41,10.10
2012,03,15,13,42,10.00
2012,03,15,13,43,9.90
2012,03,15,13,44,9.90
2012,03,15,13,45,9.90
2012,03,15,13,46,9.90
2012,03,15,13,47,9.90
2012,03,15,13,48,9.90
2012,03,15,13,49,9.80
2012,03,15,13,50,9.80
2012,03,15,13,51,9.90
2012,03,15,13,52,9.80
2012,03,15,13,53,9.80
2012,03,15,13,54,9.80
2012,03,15,13,55,9.80
2012,03,15,13,56,9.80
2012,03,15,13,57,9.90
2012,03,15,13,58,9.90
2012,03,15,13,59,10.10
2012,03,15,14,00,10.10
2012,03,15,14,01,10.10
2012,03,15,14,02,10.10
2012,03,15,14,03,10.10
2012,03,15,14,04,10.10
2012,03,15,14,05,10.10
2012,03,15,14,06,10.10
2012,03,15,14,07,9.90
2012,03,15,14,08,9.90
2012,03,15,14,09,9.80
2012,03,15,14,10,9.70
2012,03,15,14,11,9.70
2012,03,15,14,12,9.70
2012,03,15,14,13,9.70
2012,03,15,14,14,9.60
2012,03,15,14,15,9.60
2012,03,15,14,16,9.60
2012,03,15,14,17,9.60
2012,03,15,14,18,9.70
2012,03,15,14,19,9.70
2012,03,15,14,20,9.70
2012,03,15,14,21,9.70
2012,03,15,14,22,9.70
2012,03,15,14,23,9.70
2012,03,15,14,24,9.70
2012,03,15,14,25,9.70
2012,03,15,14,26,9.60
2012,03,15,14,27,9.60
2012,03,15,14,28,9.70
2012,03,15,14,29,9.70
2012,03,15,14,30,9.70
2012,03,15,14,31,9.70
2012,03,15,14,32,9.70
2012,03,15,14,33,9.70
2012,03,15,14,34,9.70
2012,03,15,14,35,9.70
2012,03,15,14,36,9.80
2012,03,15,14,37,9.80
2012,03,15,14,38,9.80
2012,03,15,14,39,9.80
2012,03,15,14,40,9.90
2012,03,15,14,41,9.80
2012,03,15,14,42,9.80
2012,03,15,14,43,9.70
2012,03,15,14,44,9.70
2012,03,15,14,45,9.70
2012,03,15,14,46,9.70
2012,03,15,14,47,9.70
2012,03,15,14,48,9.80
2012,03,15,14,49,9.90
2012,03,15,14,50,9.90
2012,03,15,14,51,9.90
2012,03,15,14,52,9.90
2012,03,15,14,53,9.90
2012,03,15,14,54,9.90
2012,03,15,14,55,10.10
2012,03,15,14,56,10.10
2012,03,15,14,57,10.10
2012,03,15,14,58,10.10
2012,03,15,14,59,10.10
2012,03,15,15,00,10.10
2012,03,15,15,01,9.90
2012,03,15,15,02,9.90
2012,03,15,15,03,9.90
2012,03,15,15,04,10.00
2012,03,15,15,05,10.10
2012,03,15,15,06,10.00
2012,03,15,15,07,9.90
2012,03,15,15,08,9.90
2012,03,15,15,09,9.90
2012,03,15,15,10,9.90
2012,03,15,15,11,10.00
2012,03,15,15,12,10.10
2012,03,15,15,13,10.10
2012,03,15,15,14,10.10
2012,03,15,15,15,10.10
2012,03,15,15,16,10.10
2012,03,15,15,17,10.00
2012,03,15,15,18,9.90
2012,03,15,15,19,9.90
2012,03,15,15,20,9.80
2012,03,15,15,21,9.80
2012,03,15,15,22,9.80
2012,03,15,15,23,9.70
2012,03,15,15,24,9.70
2012,03,15,15,25,9.70
2012,03,15,15,26,9.70
2012,03,15,15,27,9.70
2012,03,15,15,28,9.70
2012,03,15,15,29,9.70
2012,03,15,15,30,9.60
2012,03,15,15,31,9.50
2012,03,15,15,32,9.50
2012,03,15,15,33,9.40
2012,03,15,15,34,9.40
2012,03,15,15,35,9.40
2012,03,15,15,36,9.30
2012,03,15,15,37,9.20
2012,03,15,15,38,9.20
2012,03,15,15,39,9.10
2012,03,15,15,40,9.00
2012,03,15,15,41,8.90
2012,03,15,15,42,8.80
2012,03,15,15,43,8.60
2012,03,15,15,44,8.50
2012,03,15,15,45,8.40
2012,03,15,15,46,8.40
2012,03,15,15,47,8.40
2012,03,15,15,48,8.40
2012,03,15,15,49,8.40
2012,03,15,15,50,8.40
2012,03,15,15,51,8.40
2012,03,15,15,52,8.40
2012,03,15,15,53,8.30
2012,03,15,15,54,8.30
2012,03,15,15,55,8.20
2012,03,15,15,56,8.10
2012,03,15,15,57,8.00
2012,03,15,15,58,8.00
2012,03,15,15,59,8.00
2012,03,15,16,00,8.00
2012,03,15,16,01,8.00
2012,03,15,16,02,8.00
2012,03,15,16,03,8.00
2012,03,15,16,04,8.00
2012,03,15,16,05,8.00
2012,03,15,16,06,8.00
2012,03,15,16,07,7.90
2012,03,15,16,08,7.90
2012,03,15,16,09,7.90
2012,03,15,16,10,7.90
2012,03,15,16,11,7.80
2012,03,15,16,12,7.80
2012,03,15,16,13,7.80
2012,03,15,16,14,7.80
2012,03,15,16,15,7.80
2012,03,15,16,16,7.70
2012,03,15,16,17,7.80
2012,03,15,16,18,7.70
2012,03,15,16,19,7.60
2012,03,15,16,20,7.60
2012,03,15,16,21,7.60
2012,03,15,16,22,7.60
2012,03,15,16,23,7.60
2012,03,15,16,24,7.60
2012,03,15,16,25,7.70
2012,03,15,16,26,7.70
2012,03,15,16,27,7.80
2012,03,15,16,28,7.80
2012,03,15,16,29,7.80
2012,03,15,16,30,7.80
2012,03,15,16,31,7.80
2012,03,15,16,32,7.80
2012,03,15,16,33,7.90
2012,03,15,16,34,7.90
2012,03,15,16,35,7.90
2012,03,15,16,36,7.90
2012,03,15,16,37,7.90
2012,03,15,16,38,7.90
2012,03,15,16,39,7.90
2012,03,15,16,40,7.90
2012,03,15,16,41,7.90
2012,03,15,16,42,7.90
2012,03,15,16,43,7.90
2012,03,15,16,44,7.90
2012,03,15,16,45,8.00
2012,03,15,16,46,7.90
2012,03,15,16,47,7.90
2012,03,15,16,48,7.90
2012,03,15,16,49,7.90
2012,03,15,16,50,7.90
2012,03,15,16,51,7.90
2012,03,15,16,52,7.80
2012,03,15,16,53,7.80
2012,03,15,16,54,7.80
2012,03,15,16,55,7.80
2012,03,15,16,56,7.80
2012,03,15,16,57,7.80
2012,03,15,16,58,7.80
2012,03,15,16,59,7.80
2012,03,15,17,00,7.80
2012,03,15,17,01,7.80
2012,03,15,17,02,7.70
2012,03,15,17,03,7.70
2012,03,15,17,04,7.70
2012,03,15,17,05,7.80
2012,03,15,17,06,7.70
2012,03,15,17,07,7.70
2012,03,15,17,08,7.80
2012,03,15,17,09,7.80
2012,03,15,17,10,7.80
2012,03,15,17,11,7.80
2012,03,15,17,12,7.70
2012,03,15,17,13,7.70
2012,03,15,17,14,7.70
2012,03,15,17,15,7.70
2012,03,15,17,16,7.70
2012,03,15,17,17,7.70
2012,03,15,17,18,7.60
2012,03,15,17,19,7.60
2012,03,15,17,20,7.50
2012,03,15,17,21,7.50
2012,03,15,17,22,7.40
2012,03,15,17,23,7.40
2012,03,15,17,24,7.40
2012,03,15,17,25,7.30
2012,03,15,17,26,7.30
2012,03,15,17,27,7.30
2012,03,15,17,28,7.40
2012,03,15,17,29,7.40
2012,03,15,17,30,7.40
2012,03,15,17,31,7.30
2012,03,15,17,32,7.30
2012,03,15,17,33,7.30
2012,03,15,17,34,7.30
2012,03,15,17,35,7.30
2012,03,15,17,36,7.30
2012,03,15,17,37,7.30
2012,03,15,17,38,7.40
2012,03,15,17,39,7.40
2012,03,15,17,40,7.40
2012,03,15,17,41,7.40
2012,03,15,17,42,7.50
2012,03,15,17,43,7.50
2012,03,15,17,44,7.50
2012,03,15,17,45,7.60
2012,03,15,17,46,7.60
2012,03,15,17,47,7.60
2012,03,15,17,48,7.50
2012,03,15,17,49,7.50
2012,03,15,17,50,7.40
2012,03,15,17,51,7.40
2012,03,15,17,52,7.30
2012,03,15,17,53,7.30
2012,03,15,17,54,7.30
2012,03,15,17,55,7.30
2012,03,15,17,56,7.30
2012,03,15,17,57,7.20
2012,03,15,17,58,7.20
2012,03,15,17,59,7.20
2012,03,15,18,00,7.10
2012,03,15,18,01,7.10
2012,03,15,18,02,7.10